Bingham Lake, MN

11:18 AM CST on February 20, 2017 (GMT -0600)
Windom Municipal

Weather History for KMWM - August, 2013

Change the Weather History Date:

Tuesday, August 6, 2013

  Actual Average Record
Temperature  
Mean Temperature 70 °F -  
Max Temperature 84 °F 82 °F 95 °F (1949)
Min Temperature 55 °F 60 °F 46 °F (1977)
Cooling Degree Days 4    
Growing Degree Days 20 (Base 50)    
Moisture  
Dew Point 61 °F    
Average Humidity 73    
Maximum Humidity 100    
Minimum Humidity 40    
Precipitation  
Precipitation 0.00 in - - ()
Sea Level Pressure  
Sea Level Pressure 29.83 in    
Wind  
Wind Speed 4 mph (SW)    
Max Wind Speed 15 mph    
Max Gust Speed 20 mph    
Visibility 8 miles    
Events Fog    
Averages and records for this station are not official NWS values.
T = Trace of Precipitation, MM = Missing Value Source: NWS Daily Summary

Daily Weather History Graph

Daily Weather History Graph

Search for Another Location

Airport or City:

Trip Planner

Search our weather history database for the weather conditions in past years. The results will help you decide how hot, cold, wet, or windy it might be!

Date:

Astronomy

Aug. 06, 2013 Rise Set
Actual Time 6:14 AM CDT 8:37 PM CDT
Civil Twilight 5:42 AM CDT 9:09 PM CDT
Nautical Twilight 5:02 AM CDT 9:49 PM CDT
Astronomical Twilight 4:17 AM CDT 10:33 PM CDT
Moon 6:08 AM CDT (8/6) 8:09 PM CDT (8/6)
Length of Visible Light 15h 26m
Length of Day
14h 22m
Waning Crescent, 0% of the Moon is Illuminated
Aug 6
Waning Crescent
Aug 6
New
Aug 14
First Quarter
Aug 20
Full
Aug 28
Last Quarter

Hourly Weather History & Observations

Time (CDT) Temp. Heat Index Dew Point Humidity Pressure Visibility Wind Dir Wind Speed Gust Speed Precip Events Conditions
12:12 AM 64.4 °F - 62.6 °F 94% 29.90 in 10.0 mi Calm Calm - N/A   Clear
12:32 AM 64.4 °F - 62.6 °F 94% 29.89 in 10.0 mi Calm Calm - N/A   Clear
12:52 AM 64.4 °F - 62.6 °F 94% 29.88 in 7.0 mi Calm Calm - N/A   Clear
1:12 AM 64.4 °F - 60.8 °F 88% 29.88 in 3.0 mi Calm Calm - N/A   Clear
1:32 AM 62.6 °F - 60.8 °F 94% 29.89 in 0.8 mi Calm Calm - N/A   Mist
1:52 AM 62.6 °F - 60.8 °F 94% 29.89 in 7.0 mi Calm Calm - N/A   Clear
2:12 AM 62.6 °F - 60.8 °F 94% 29.88 in 4.0 mi Calm Calm - N/A   Clear
2:32 AM 60.8 °F - 60.8 °F 100% 29.89 in 0.5 mi Calm Calm - N/A Fog Fog
2:52 AM 59.0 °F - 57.2 °F 94% 29.88 in 1.0 mi Calm Calm - N/A   Mostly Cloudy
3:12 AM 59.0 °F - 57.2 °F 94% 29.88 in 1.0 mi Calm Calm - N/A   Mist
3:32 AM 57.2 °F - 57.2 °F 100% 29.86 in 0.2 mi Calm Calm - N/A Fog Fog
3:52 AM 57.2 °F - 57.2 °F 100% 29.85 in 0.2 mi Calm Calm - N/A Fog Fog
4:12 AM 57.2 °F - 57.2 °F 100% 29.85 in 3.0 mi Calm Calm - N/A   Mostly Cloudy
4:32 AM 59.0 °F - 57.2 °F 94% 29.84 in 0.2 mi Calm Calm - N/A Fog Fog
4:52 AM 57.2 °F - 55.4 °F 94% 29.84 in 0.2 mi Calm Calm - N/A Fog Fog
5:12 AM 55.4 °F - 55.4 °F 100% 29.85 in 0.5 mi Calm Calm - N/A Fog Fog
5:32 AM 59.0 °F - 57.2 °F 94% 29.84 in 2.5 mi South 3.5 mph - N/A   Scattered Clouds
5:52 AM 55.4 °F - 55.4 °F 100% 29.84 in 0.2 mi Calm Calm - N/A Fog Fog
6:12 AM 57.2 °F - 57.2 °F 100% 29.85 in 7.0 mi South 4.6 mph - N/A   Scattered Clouds
6:32 AM 60.8 °F - 59.0 °F 94% 29.85 in 7.0 mi SSE 3.5 mph - N/A   Clear
6:52 AM 60.8 °F - 60.8 °F 100% 29.84 in 7.0 mi SSE 4.6 mph - N/A   Clear
7:13 AM 62.6 °F - 60.8 °F 94% 29.85 in 10.0 mi South 4.6 mph - N/A   Clear
7:32 AM 64.4 °F - 62.6 °F 94% 29.85 in 10.0 mi Calm Calm - N/A   Clear
7:52 AM 64.4 °F - 60.8 °F 88% 29.86 in 10.0 mi SW 8.1 mph - N/A   Clear
8:13 AM 64.4 °F - 62.6 °F 94% 29.86 in 10.0 mi South 9.2 mph - N/A   Clear
8:32 AM 66.2 °F - 62.6 °F 88% 29.86 in 10.0 mi South 6.9 mph - N/A   Clear
8:52 AM 68.0 °F - 62.6 °F 83% 29.83 in 10.0 mi South 8.1 mph - N/A   Clear
9:12 AM 68.0 °F - 62.6 °F 83% 29.80 in 10.0 mi SSE 9.2 mph - N/A   Clear
9:32 AM 69.8 °F - 64.4 °F 83% 29.79 in 10.0 mi South 9.2 mph 17.3 mph N/A   Clear
9:53 AM 69.8 °F - 64.4 °F 83% 29.82 in 10.0 mi SSW 10.4 mph - N/A   Clear
10:12 AM 71.6 °F - 62.6 °F 73% 29.82 in 10.0 mi South 8.1 mph - N/A   Clear
10:32 AM 71.6 °F - 62.6 °F 73% 29.81 in 10.0 mi South 10.4 mph - N/A   Clear
10:53 AM 73.4 °F - 64.4 °F 73% 29.81 in 10.0 mi SSW 10.4 mph - N/A   Clear
11:12 AM 73.4 °F - 64.4 °F 73% 29.81 in 10.0 mi SSW 9.2 mph - N/A   Clear
11:32 AM 77.0 °F - 64.4 °F 65% 29.81 in 10.0 mi SSW 15.0 mph - N/A   Clear
11:53 AM 78.8 °F - 64.4 °F 61% 29.81 in 10.0 mi SW 13.8 mph 17.3 mph N/A   Clear
12:12 PM 78.8 °F - 64.4 °F 61% 29.82 in 10.0 mi SW 12.7 mph - N/A   Clear
12:32 PM 80.6 °F 82.3 °F 64.4 °F 58% 29.82 in 10.0 mi WSW 10.4 mph 17.3 mph N/A   Clear
12:53 PM 82.4 °F 82.9 °F 60.8 °F 48% 29.81 in 10.0 mi SW 10.4 mph - N/A   Clear
1:12 PM 82.4 °F 82.5 °F 59.0 °F 45% 29.81 in 10.0 mi West 9.2 mph 16.1 mph N/A   Clear
1:32 PM 82.4 °F 82.0 °F 57.2 °F 42% 29.81 in 10.0 mi WSW 5.8 mph - N/A   Clear
1:52 PM 84.2 °F 83.5 °F 57.2 °F 40% 29.82 in 10.0 mi West 6.9 mph - N/A   Clear
2:12 PM 84.2 °F 83.8 °F 59.0 °F 42% 29.82 in 10.0 mi West 9.2 mph - N/A   Clear
2:33 PM 84.2 °F 83.8 °F 59.0 °F 42% 29.81 in 10.0 mi West 11.5 mph - N/A   Clear
2:52 PM 84.2 °F 83.5 °F 57.2 °F 40% 29.81 in 10.0 mi West 10.4 mph - N/A   Clear
3:12 PM 84.2 °F 83.8 °F 59.0 °F 42% 29.81 in 10.0 mi West 10.4 mph - N/A   Clear
3:33 PM 84.2 °F 84.4 °F 60.8 °F 45% 29.81 in 10.0 mi WSW 13.8 mph - N/A   Clear
3:52 PM 84.2 °F 83.8 °F 59.0 °F 42% 29.81 in 10.0 mi West 15.0 mph 19.6 mph N/A   Clear
4:12 PM 84.2 °F 84.4 °F 60.8 °F 45% 29.81 in 10.0 mi West 10.4 mph - N/A   Clear
4:33 PM 84.2 °F 84.4 °F 60.8 °F 45% 29.81 in 10.0 mi West 8.1 mph - N/A   Clear
4:52 PM 84.2 °F 84.4 °F 60.8 °F 45% 29.80 in 10.0 mi SW 10.4 mph - N/A   Clear
5:12 PM 84.2 °F 84.4 °F 60.8 °F 45% 29.80 in 10.0 mi WSW 10.4 mph - N/A   Clear
5:33 PM 84.2 °F 84.4 °F 60.8 °F 45% 29.79 in 10.0 mi SW 11.5 mph - N/A   Clear
5:52 PM 84.2 °F 84.4 °F 60.8 °F 45% 29.79 in 10.0 mi SW 12.7 mph - N/A   Clear
6:12 PM 82.4 °F 82.9 °F 60.8 °F 48% 29.78 in 10.0 mi SW 11.5 mph - N/A   Clear
6:33 PM 82.4 °F 83.4 °F 62.6 °F 51% 29.77 in 10.0 mi SW 6.9 mph - N/A   Clear
6:52 PM 82.4 °F 83.4 °F 62.6 °F 51% 29.77 in 10.0 mi SW 10.4 mph - N/A   Clear
7:12 PM 82.4 °F 83.9 °F 64.4 °F 54% 29.78 in 10.0 mi SW 8.1 mph - N/A   Clear
7:33 PM 80.6 °F 81.8 °F 62.6 °F 54% 29.77 in 10.0 mi WSW 10.4 mph 16.1 mph N/A   Clear
7:52 PM 80.6 °F 81.8 °F 62.6 °F 54% 29.78 in 10.0 mi WSW 8.1 mph - N/A   Clear
8:12 PM 78.8 °F - 62.6 °F 57% 29.79 in 10.0 mi WSW 6.9 mph - N/A   Clear
8:33 PM 78.8 °F - 62.6 °F 57% 29.80 in 10.0 mi WSW 8.1 mph - N/A   Clear
8:52 PM 75.2 °F - 64.4 °F 69% 29.80 in 10.0 mi WSW 5.8 mph - N/A   Scattered Clouds
9:12 PM 75.2 °F - 64.4 °F 69% 29.82 in 10.0 mi West 6.9 mph - N/A   Scattered Clouds
9:33 PM 73.4 °F - 64.4 °F 73% 29.82 in 10.0 mi WSW 4.6 mph - N/A   Scattered Clouds
9:52 PM 71.6 °F - 64.4 °F 78% 29.82 in 10.0 mi West 4.6 mph - N/A   Scattered Clouds
10:12 PM 71.6 °F - 62.6 °F 73% 29.84 in 10.0 mi NW 13.8 mph - N/A   Clear
10:33 PM 71.6 °F - 60.8 °F 69% 29.84 in 10.0 mi NW 8.1 mph - N/A   Clear
10:52 PM 69.8 °F - 60.8 °F 73% 29.84 in 10.0 mi WNW 4.6 mph - N/A   Clear
11:12 PM 66.2 °F - 60.8 °F 83% 29.84 in 10.0 mi West 3.5 mph - N/A   Clear
11:33 PM 66.2 °F - 60.8 °F 83% 29.84 in 10.0 mi West 5.8 mph - N/A   Clear
11:52 PM 64.4 °F - 60.8 °F 88% 29.84 in 10.0 mi West 4.6 mph - N/A   Clear